TimeEST,TemperatureF,Dew PointF,Humidity,Sea Level PressureIn,VisibilityMPH,Wind Direction,Wind SpeedMPH,Gust SpeedMPH,PrecipitationIn,Events,Conditions,WindDirDegrees,DateUTC
12:54 AM,-9999,-9999,N/A,30.33,-9999.0,North,-9999.0,-,N/A,,Unknown,0,2012-11-29 05:54:00
1:54 AM,25.0,19.0,78,30.34,10.0,Calm,Calm,-,N/A,,Unknown,0,2012-11-29 06:54:00
2:54 AM,24.1,19.9,84,30.34,9.0,Calm,Calm,-,N/A,,Clear,0,2012-11-29 07:54:00
3:54 AM,23.0,19.0,85,30.34,8.0,Calm,Calm,-,N/A,,Unknown,0,2012-11-29 08:54:00
4:54 AM,24.1,19.0,81,30.34,9.0,Calm,Calm,-,N/A,,Clear,0,2012-11-29 09:54:00
5:54 AM,24.1,19.0,81,30.35,8.0,Calm,Calm,-,N/A,,Clear,0,2012-11-29 10:54:00
6:54 AM,25.0,19.9,81,30.37,8.0,Calm,Calm,-,N/A,,Unknown,0,2012-11-29 11:54:00
7:54 AM,27.0,21.9,81,30.38,7.0,Calm,Calm,-,N/A,,Clear,0,2012-11-29 12:54:00
8:54 AM,33.1,24.1,70,30.40,7.0,Calm,Calm,-,N/A,,Clear,0,2012-11-29 13:54:00
9:54 AM,36.0,24.1,62,30.41,8.0,WSW,5.8,-,N/A,,Partly Cloudy,240,2012-11-29 14:54:00
10:54 AM,37.9,25.0,60,30.41,9.0,WSW,6.9,-,N/A,,Clear,250,2012-11-29 15:54:00
11:54 AM,39.9,25.0,55,30.40,9.0,West,4.6,-,N/A,,Clear,260,2012-11-29 16:54:00
12:54 PM,42.1,25.0,51,30.37,9.0,West,9.2,-,N/A,,Clear,260,2012-11-29 17:54:00
1:54 PM,43.0,26.1,51,30.34,9.0,WSW,9.2,-,N/A,,Clear,240,2012-11-29 18:54:00
2:54 PM,43.0,24.1,47,30.32,10.0,West,8.1,-,N/A,,Clear,260,2012-11-29 19:54:00
3:54 PM,43.0,25.0,49,30.34,10.0,WSW,6.9,-,N/A,,Clear,250,2012-11-29 20:54:00
4:54 PM,41.0,25.0,53,30.32,10.0,SW,4.6,-,N/A,,Clear,230,2012-11-29 21:54:00
5:54 PM,39.0,24.1,55,30.34,10.0,SSW,3.5,-,N/A,,Unknown,210,2012-11-29 22:54:00
6:54 PM,37.0,24.1,59,30.34,10.0,South,3.5,-,N/A,,Clear,180,2012-11-29 23:54:00
7:54 PM,30.9,24.1,76,30.35,10.0,Calm,Calm,-,N/A,,Clear,0,2012-11-30 00:54:00
8:54 PM,28.9,23.0,78,30.35,10.0,Calm,Calm,-,N/A,,Clear,0,2012-11-30 01:54:00
9:54 PM,30.9,23.0,72,30.35,10.0,Calm,Calm,-,N/A,,Clear,0,2012-11-30 02:54:00
10:54 PM,28.0,23.0,81,30.35,10.0,Calm,Calm,-,N/A,,Clear,0,2012-11-30 03:54:00
11:54 PM,28.0,23.0,81,30.34,9.0,Calm,Calm,-,N/A,,Unknown,0,2012-11-30 04:54:00